Zurück zum Katalog

SIRIUS 3

AktivKommunikationMEO
NORAD 26626·PAYLOAD·🇺🇸 United States

Gestartet Nov 30, 2000 von Baikonur Cosmodrome

Loading…

Nächste Überflüge (nächste 24 Stunden)

TLE

AktuellSource: Space-Track

Epoche: Sep 12, 2026, 11:01 UTC

1 26626U 00077A   26255.45957547 -.00000001  00000-0  00000-0 0  9994
2 26626  59.6164 274.9224 0014171 271.0949  88.7822  1.58823501115882

Verfolge SIRIUS 3 in Echtzeit mit AllMySat

Download on the App Store